Regional Weather Roundup
Issued by NWS Goodland, KS

Home | Current Version | Previous Version | Text Only | Print | Product List | Glossary Off
Versions: 1 2 3 4 5 6 7 8 9 10 11 12 13 14 15 16 17 18 19 20 21 22 23 24 25 26 27 28 29 30 31 32 33 34 35 36 37 38 39 40 41 42 43 44 45 46 47 48 49 50

236
ASUS43 KGLD 230959
RWRGLD

GOODLAND FORECAST AREA HOURLY WEATHER ROUNDUP
NATIONAL WEATHER SERVICE GOODLAND KS
400 AM MDT FRI JUN 23 2017

...OFFICIAL OBSERVATIONS...

CITY           SKY/WX    TMP DP  RH WIND       PRES   REMARKS
GOODLAND KS    CLOUDY    62  48  60 N20       30.04R
HILL CITY KS   CLOUDY    65  56  72 N13       29.91R
IMPERIAL NEB   LGT RAIN  59  52  77 N3        30.09R
MCCOOK NEB     LGT RAIN  61  54  77 W8        30.08R
AKRON CO       LGT RAIN  56  50  80 NE7       30.15R
BURLINGTON CO  CLOUDY    61  48  62 NE15      30.07R
LIMON CO       CLOUDY    60  55  83 N5        30.13R
$$

...UNOFFICIAL OBSERVATIONS...

CITY           SKY/WX    TMP DP  RH WIND       PRES   REMARKS
LENORA KS        N/A     58  32  37 MISG        N/A
NORTON KS      PTCLDY    61  48  63 N10       29.94
SHARON SPRINGS   N/A     61  53  74 N6          N/A
TRENTON NEB      N/A     58  32  37 E7          N/A
KIT CARSON CO    N/A     59  54  84 MISG        N/A
YUMA CO        LGT RAIN  55  50  82 NE14      30.08F
$$




USA.gov is the U.S. government's official web portal to all federal, state and local government web resources and services.